SPOT 7 (40053 NORAD) Tracking and Keplerian Element Data

This shows tracking and keplerian element data for the satellite.

Feedback or suggestion? Click here.




ElementValue
Catalog40053
NameSPOT 7
Epoch Orbit23367
Epoch Day323.18781959
Epoch Year2018
RAAN28.3509
Inclination98.1713
Eccentricity0.0001678
Argument of Perigee80.0222
Mean Anonmoly280.1177
Mean Motion14.58563168
Decay Rate-2.5E-07
L11 40053U 14034A 18323.18781959 -.00000025 00000-0 43735-5 0 9994
L22 40053 98.1713 28.3509 0001678 80.0222 280.1177 14.58563168233670

Live tracking and technical data element details for SPOT 7 (NORAD 40053). SPOT 7 can be tracked NOW for your location showing map with azimuth and elevation plus other details from your city location.

Track the satellite on the map from your city or location and see movement details for azimuth, elevation, latitude, longitude, range, height, and movement on the map or in text.







IsCatalogInMostPopularTable: catalog: 40053, numindb: 140
Update: records affected: 1



GetName: 40053 SPOT 7

Hit Count: updated at: Mon, 19 Nov 2018 10:58:46 GMT